sat.trackr.live / text

‹ back to catalog

GUANGCHUAN 01

NORAD 62111 · 2024-221A

PAYLOAD ACTIVE UNKNOWN

§ Identity

Operator
Country
PRC
Launch date
2024-11-27
Launch site
JSC
Launch vehicle
Mass (kg)
RCS (m²)

External: N2YO · Heavens-Above · Gunter

§ Orbital elements

Epoch: 2026-09-22T20:51:32.992704Z

Period
95.09 min
Inclination
49.9442°
Eccentricity
0.0007013
Mean motion
15.14374816 rev/d
Perigee alt
518.0 km
Apogee alt
527.7 km
Semi-major
6,901.0 km
B*
1.6863e-4
RAAN
46.5036°
Arg perigee
332.2414°
Mean anomaly
27.8161°
Rev number
10,099

§ Raw data

GUANGCHUAN 011 62111U 24221A   26265.86913186  .00002835  00000+0  16863-3 0  99992 62111  49.9442  46.5036 0007013 332.2414  27.8161 15.14374816100993

JSON: /api/v1/satellites/62111 · /tle

For live sub-satellite position, see the globe view (requires WebGL).

§ Visibility from observer

Set your observer location to see the next 7 days of passes ≥ 10°. The values pass through the URL so the page stays shareable.

No JS? Fill the form by hand. The geolocation button needs JavaScript.